{"data":{"norad_id":63797,"intl_designator":"2025-091Y","name":"STARLINK-33712","alt_names":[],"object_type":"PAYLOAD","status":"ACTIVE","operator":null,"country":"US","launch_date":"2025-05-02","launch_site_code":"AFETR","launch_vehicle":null,"mission":null,"orbit_class":"UNKNOWN","rcs_meters":null,"size_class":null,"mass_kg":null,"dimensions":null,"purposes":["comms"],"wikipedia_slug":null,"has_3d_model":false,"image_url":null,"decayed_at":null,"tle_current":{"epoch":"2026-05-24T22:45:33.805152Z","epoch_age_seconds":76209,"freshness":"FRESH","line1":"1 63797U 25091Y   26144.94830793  .00010780  00000+0  40079-3 0  9997","line2":"2 63797  43.0028 345.5016 0001682 290.3149  69.7522 15.27571909 60520","mean_motion":15.27571909,"eccentricity":0.0001682,"inclination_deg":43.0028,"raan_deg":345.5016,"arg_perigee_deg":290.3149,"mean_anomaly_deg":69.7522,"bstar":0.00040079,"rev_number":6052,"period_min":94.267248010778,"perigee_km":481.9192679349,"apogee_km":484.22737908773,"semimajor_km":6861.2103235113,"source":"CELESTRAK","updated_at":"2026-05-25T13:38:20.137606Z"}}}